Location: Artiguedieu
(43.5000°N, 0.5454°E)
Time: 12:59:50
(UTC+00:00)

SR - Pass Details

Date: 11 August 2021
Orbit: 581 x 874 km, 66.7° (Epoch: 18 September)

Event Time Altitude Azimuth Distance (km) Brightness Sun altitude
Exits shadow 02:18:17 14° 144° (SE) 2,193 ? -23.6°
Maximum altitude 02:21:15 21° 108° (ESE) 1,810 ? -23.3°
Drops below altitude 10° 02:25:15 10° 61° (ENE) 2,394 ? -22.9°
Sets 02:28:10 0° 46° (NE) 3,279 ? -22.5°
